Location: Home
(42.5358°N, 72.7383°W)
Time: 13:15:39
(UTC-05:00)

Tiros 1 - Pass Details

Date: 03 December 2021
Orbit: 629 x 664 km, 48.4° (Epoch: 26 January)

Event Time Altitude Azimuth Distance (km) Brightness Sun altitude
Rises 00:35:43 0° 295° (WNW) 2,964 - -66.6°
Reaches altitude 10° 00:38:05 10° 291° (WNW) 2,057 - -66.3°
Maximum altitude 00:42:43 56° 214° (SW) 782 - -65.8°
Drops below altitude 10° 00:47:23 10° 137° (SE) 2,066 - -65.3°
Sets 00:49:46 0° 133° (SE) 2,979 - -65.0°
